STARLINK-1636, 46153

Orbit data source: Space-Track

STARLINK-1636, 46153 is a payload satellite owned by SpaceX/Seattle (US) in LEO that was launched on Tue, 18 Aug 2020 UTC via an FALCON 9 launch vehicle from the Air Force Eastern Test Range (AFETR). Payload-class satellites include a variety of spacecraft equipped with specific instruments for various scientific and technological missions. These include communications satellites like Starlink; space stations such as the ISS; scientific satellites like the Hubble; Earth observation satellites from companies like Planet Labs, Umbra, and HawkEye 360; GPS; miniature CubeSats for education and research; and military/defense satellites.

Loading next visibility...
Identifier
46153, 2020-057AN
Orbit
LEO
Last TLE update
22 hours ago
Origin
Manufacturer
SpaceX/Seattle
Mission
Partially operational Commercial Communications
Bus & Motor
STARLINK, Unknown motor
Mass
260 kg wet, ~248 kg dry
Launch date (UTC)
2020-08-18 (5 years ago)
Launch vehicle
FALCON 9
Launch site
Air Force Eastern Test Range (AFETR)
Object type
Payload
Rocket body
Debris
Shape & HBR
Box + 1 Pan, 8.86 m
Radar Cross Section
13.562 m², Large (>1 m²)

Expand to show TLE details & history

TLE from 22 hours ago
0 STARLINK-1636
1 46153U 20057AN  25128.46526123  .00105948  00000-0  23100-2 0  9995
2 46153  53.0328 207.8727 0007368 266.3473  93.6690 15.43405575260606
Epoch: 2025-05-08T11:09Z
Definitive object data (Epoch: 2025-05-08T11:09:58.57Z)
Latitude
0.00005°
Longitude
173.84333°
Altitude
437.283 km
Speed
7.651 km/s
True Right ascension
13h 51m 29s
True Declination
0° 00' 00"
Sunlit
Object was in full shadow at TLE epoch
Visualization TLE readout
Latitude
-14.00568°
Longitude
158.78775°
Altitude
437.813 km
Speed
7.65 km/s
Apparent Right ascension
09h 51m 10s
Apparent Declination
-42° 59' 34"
Sunlit
Object is in full shadow
Visualization observer readout
Local Sidereal Time
17:00:02
Azimuth
241.2° WSW
Elevation
-37.129°
Doppler factor
1
Orbital elements
Apogee altitude
441.366 km
Perigee altitude
431.325 km
Semi-major axis
6,814.483 km
Eccentricity
0.0007368
Inclination
53.0328°
RAAN
207.8727°
Arg. of periapsis
266.3473°
True anomaly
93.75325°
Mean anomaly
93.669°
Eccentric anomaly
93.71113°
Mean motion
3.85828 °/min
BSTAR
0.00231
Orbital period
93.31 mins
Loading maneuver chart data...
Loading SW <> Apogee altitude chart data...
Loading historical data...
Loading historical data...
Loading historical data...
Loading historical data...
Loading historical data...
Loading historical data...
Loading historical data...

STARLINK-1636 Visibility forecast

Observer location: undefined°, undefined°

Span
Click to sort rows by Start time (UTC) header in descending order
Start Az.
Max El. time (UTC)
Max El. Az.
Max El.
End time (UTC)
End Az.
5 mins2025-05-09 09:09:48.573Z282.667° WNW2025-05-09 09:11:48.573Z323.584° NNW21.621°2025-05-09 09:14:48.573Z26.74° NE
4 mins2025-05-09 14:04:48.573Z339.998° N2025-05-09 14:06:48.573Z56.051° ENE31.398°2025-05-09 14:08:48.573Z99.509° ESE
4 mins2025-05-09 15:41:48.573Z263.08° W2025-05-09 15:42:48.573Z240.318° WSW19.929°2025-05-09 15:45:48.573Z178.918° S
4 mins2025-05-10 06:50:48.573Z181.311° SSW2025-05-10 06:52:48.573Z127.818° SE25.902°2025-05-10 06:54:48.573Z79.661° E
4 mins2025-05-10 08:27:48.573Z277.221° WNW2025-05-10 08:29:48.573Z334.16° NNW27.601°2025-05-10 08:31:48.573Z24.264° NE
|